SCOUT X-1 DEB, 3927

Orbit data source: Space-Track

SCOUT X-1 DEB, 3927 is space debris in LEO originally from a launch on Thu, 16 Feb 1961 UTC launched from the Wallops Island (WLPIS). Debris objects in space refer to the collection of defunct objects orbiting the Earth. Examples of debris include non-operational satellites, rocket bodies, and fragments generated from explosions, collisions, or faulty payload assembly.

Loading next visibility...
Identifier
3927, 1961-004F
Orbit
LEO
Country
Flag of USUS
Related business
Manufacturer
Unknown
Mission
Spacecraft
Bus & Motor
Unknown
Mass
Unknown
Launch date (UTC)
1961-02-16 (65 years ago)
Launch vehicle
Unknown
Launch site
Wallops Island (WLPIS)
Object type
Payload
Rocket body
Debris
Shape & HBR
Unknown shape, 0.1 m
Radar Cross Section
Small (<0.1 m²)

Expand to show TLE details & history
Last TLE update: 2 days ago

TLE from 2 days ago
0 SCOUT X-1 DEB
1 03927U 61004F   25302.63769924  .00096712  00000-0  62308-2 0  9996
2 03927  38.9831 276.5586 0154018 232.7448 125.9194 14.97927024 95935
Epoch: 2025-10-29T15:18Z
TLE epoch observation values (Epoch: 2025-10-29T15:18:17.214Z)
Latitude
0.00001°
Longitude
8.77892°
Altitude
636.506 km
Speed
7.507 km/s
True Right ascension
18h 26m 14s
True Declination
0° 00' 00"
Sunlit
Object was in daylight at epoch
Visualization orbit readout
Latitude
Unknown
Longitude
Unknown
Altitude
Unknown
Speed
Unknown
Apparent Right ascension
Unknown
Apparent Declination
Unknown
Sunlit
N/A
Visualization observer readout
Local Sidereal Time
20:27:07
Azimuth
Unknown
Elevation
Unknown
Doppler factor
Unknown
Orbital elements
Apogee altitude
682.987 km
Perigee altitude
468.778 km
Semi-major axis
6,954.02 km
Eccentricity
0.0154
Inclination
38.9831°
RAAN
276.5586°
Arg. of periapsis
232.7448°
True anomaly
127.33259°
Mean anomaly
125.9194°
Eccentric anomaly
126.6276°
Mean motion
3.74274 °/min
Orbital period
96.19 mins
BSTAR
0.0062308
Loading maneuver chart data...
Computing Atmospheric mass density...
Loading historical data...
Loading historical data...
Loading historical data...
Loading historical data...
Loading historical data...
Loading historical data...
Loading historical data...

Documentation

Showing up to 5 results
|